Regional Weather Roundup
Issued by NWS Nashville, TN

Home | Current Version | Previous Version | Text Only | Print | Product List | Glossary On
Versions: 1 2 3 4 5 6 7 8 9 10 11 12 13 14 15 16 17 18 19 20 21 22 23 24 25 26 27
000
ASUS44 KOHX 222110
RWROHX
MIDDLE TENNESSEE HOURLY WEATHER ROUNDUP
NATIONAL WEATHER SERVICE NASHVILLE TN
400 PM CDT SUN OCT 22 2017

NOTE: "FAIR" INDICATES FEW OR NO CLOUDS BELOW 12,000 FEET WITH
NO SIGNIFICANT WEATHER AND/OR OBSTRUCTIONS TO VISIBILITY.

* THESE REPORTS ARE NOT UNDER NWS QUALITY CONTROL AND MAY NOT
  REPORT WEATHER SUCH AS PRECIPITATION AND FOG.


TNZ005>011-023>034-057-059-062>066-078-080-222200
...NORTHERN MIDDLE TENNESSEE...

CITY           SKY/WX    TMP DP  RH WIND       PRES   REMARKS
CLARKSVILLE    CLOUDY    77  60  55 SE13      30.00F
CROSSVILLE     CLOUDY    72  56  57 VRB7G17   30.16F
GALLATIN       PTSUNNY   77  59  53 SE14      30.08F
DICKSON          N/A     74  61  63 S6        30.02F
NASHVILLE      CLOUDY    78  60  53 SE14G20   30.05F
PORTLAND       SUNNY     77  59  53 S14       30.05F
SMYRNA         CLOUDY    77  61  57 SE9       30.06F
SPARTA         PTSUNNY   77  61  57 S8        30.11F
SPRINGFIELD    MOSUNNY   75  61  60 SE12G21   30.02S
WEST NASHVILLE CLOUDY    77  61  57 SE10      30.02F
$$
TNZ056-058-060-061-075>077-079-093>097-222200
...SOUTHERN MIDDLE TENNESSEE...

CITY           SKY/WX    TMP DP  RH WIND       PRES   REMARKS
COLUMBIA       SUNNY     75  63  64 SE9       30.01F
FAYETTEVILLE   MOSUNNY   75  63  64 SE10G17   30.06F
MURFREESBORO   CLOUDY    76  60  57 S10       30.06F
PULASKI        CLOUDY    75  64  69 SE8G14    30.03F
SHELBYVILLE    MOSUNNY   75  63  64 SE7       30.06F
TULLAHOMA      SUNNY     73  57  56 SE9       30.09F
WINCHESTER     SUNNY     75  63  64 SE13        N/A
$$


...KEY TO REMARKS...
VSB - VISIBILITY IN MILES
WCI - WIND CHILL INDEX
HX  - HEAT INDEX





USA.gov is the U.S. government's official web portal to all federal, state and local government web resources and services.